Flag for U.S.A. Weather past 2 weeks in Honolulu, Hawaii, U.S.A.

Now
77 °F

Passing clouds.


Feels Like: 79 °F
Forecast: 73 / 83 °F
Wind: 10 mph from Northeast

Location: Honolulu International Airport

Current Time: Jul 24, 2014 at 5:53:01 AM

Latest Report: Jul 24, 2014 at 4:53 AM


Visibility: 10 mi

Pressure: 30.03 "Hg

Humidity: 71%

Dew point: 67 °F

Location of HonoluluLocation

Historic Weather in Honolulu — Graph

°F

Honolulu temperature yesterday

Maximum temperature yesterday: 88 °F (at 1:53 PM)
Minimum temperature yesterday: 78 °F (at 5:53 AM)
Average temperature yesterday: 82 °F

Past Weeks' High & Low Weather Summary

 TemperatureHumidityPressure
High90 °F (Jul 13, 12:53 PM)97% (Jul 19, 11:53 PM)30.09 "Hg (Jul 19, 11:53 PM)
Low73 °F (Jul 20, 3:53 AM)42% (Jul 10, 1:53 PM)29.90 "Hg (Jul 20, 2:53 AM)
Average81 °F64%30.00 "Hg
* Reported Jul 9 4:53 AM — Jul 24 4:53 AM, Honolulu, Weather by CustomWeather, © 2014

Note: Actual official high and low records may vary slightly from our data, if they occured in-between our weather recording intervals... More about our weather records

Advertising

Honolulu weather history for previous 24 hours

 ConditionsComfort  
Time TempWeatherWind HumidityBarometerVisibility
4:53 AM
Jul 24
77 °FPassing clouds.10 mph71%30.03 "Hg10 mi
3:53 AM78 °FPassing clouds.14 mph69%30.04 "Hg10 mi
2:53 AM78 °FPartly cloudy.13 mph71%30.04 "Hg10 mi
1:53 AM78 °FLight rain. Partly cloudy.12 mph71%30.05 "Hg10 mi
12:53 AM79 °FPartly cloudy.12 mph67%30.06 "Hg10 mi
11:53 PM
Jul 23
79 °FPassing clouds.12 mph65%30.07 "Hg10 mi
10:53 PM79 °FPassing clouds.14 mph67%30.08 "Hg10 mi
9:53 PM80 °FPartly cloudy.12 mph64%30.07 "Hg10 mi
8:53 PM79 °FPartly cloudy.14 mph69%30.07 "Hg10 mi
7:53 PM80 °FPartly cloudy.15 mph64%30.06 "Hg10 mi
6:53 PM81 °FBroken clouds.18 mph60%30.03 "Hg10 mi
5:53 PM84 °FBroken clouds.14 mph55%30.02 "Hg10 mi
4:53 PM84 °FPartly sunny.15 mph53%30.01 "Hg10 mi
3:53 PM86 °FBroken clouds.14 mph51%30.01 "Hg10 mi
2:53 PM87 °FScattered clouds.20 mph48%30.02 "Hg10 mi
1:53 PM88 °FScattered clouds.18 mph46%30.03 "Hg10 mi
12:53 PM87 °FBroken clouds.22 mph50%30.03 "Hg10 mi
11:53 AM87 °FScattered clouds.18 mph48%30.04 "Hg10 mi
10:53 AM85 °FPassing clouds.18 mph53%30.05 "Hg10 mi
9:53 AM85 °FScattered clouds.17 mph50%30.05 "Hg10 mi
8:53 AM83 °FScattered clouds.10 mph55%30.05 "Hg10 mi
7:53 AM81 °FScattered clouds.14 mph60%30.04 "Hg10 mi
6:53 AM79 °FScattered clouds.13 mph65%30.03 "Hg10 mi
5:53 AM78 °FPassing clouds.20 mph64%30.02 "Hg10 mi
Weather by CustomWeather, © 2014

See weather overviewHow to use our weather pages